Weather History for KMOT - October, 2012

Change the Weather History Date:

Monday, October 15, 2012

  Actual Average Record
Temperature  
Mean Temperature 61 °F 45 °F  
Max Temperature 74 °F 56 °F 83 °F (1953)
Min Temperature 48 °F 34 °F 9 °F (1919)
Degree Days  
Heating Degree Days 4 20  
Month to date heating degree days 312 255  
Since 1 July heating degree days 522 575  
Cooling Degree Days 0 0  
Month to date cooling degree days 0 0  
Year to date cooling degree days 594 444  
Growing Degree Days 10 (Base 50)    
Moisture  
Dew Point 40 °F    
Average Humidity 49    
Maximum Humidity 66    
Minimum Humidity 31    
Precipitation  
Precipitation T in 0.04 in 0.83 in (1984)
Month to date precipitation 1.34 0.65  
Year to date precipitation 12.27 15.55  
Sea Level Pressure  
Sea Level Pressure 29.64 in    
Wind  
Wind Speed 11 mph (SW)    
Max Wind Speed 23 mph    
Max Gust Speed 31 mph    
Visibility 10 miles    
Events Rain    
T = Trace of Precipitation, MM = Missing Value Source: NWS Daily Summary

Daily Weather History Graph

Daily Weather History Graph

Search for Another Location

Airport or City:

Trip Planner

Search our weather history database for the weather conditions in past years. The results will help you decide how hot, cold, wet, or windy it might be!

Date:

Astronomy

Oct. 15, 2012 Rise Set
Actual Time 8:05 AM CDT 6:55 PM CDT
Civil Twilight 7:34 AM CDT 7:26 PM CDT
Nautical Twilight 6:57 AM CDT 8:02 PM CDT
Astronomical Twilight 6:21 AM CDT 8:38 PM CDT
Moon 8:23 AM CDT (10/15) 6:49 PM CDT (10/15)
Length of Visible Light 11h 52m
Length of Day
10h 49m
New Moon, 0% of the Moon is Illuminated
Oct 15
New Moon
Oct 21
First Quarter
Oct 29
Full
Nov 6
Last Quarter
Nov 13
New

Hourly Weather History & Observations

Time (CDT) Temp. Dew Point Humidity Pressure Visibility Wind Dir Wind Speed Gust Speed Precip Events Conditions
12:54 AM 48.9 °F 37.9 °F 66% 29.83 in 10.0 mi SW 10.4 mph - N/A   Partly Cloudy
1:54 AM 52.0 °F 39.0 °F 61% 29.81 in 10.0 mi SSW 5.8 mph - N/A   Overcast
2:54 AM 53.1 °F 42.1 °F 66% 29.76 in 10.0 mi SSE 4.6 mph - N/A   Overcast
3:54 AM 55.0 °F 39.0 °F 55% 29.74 in 10.0 mi SSW 6.9 mph - N/A   Overcast
4:54 AM 55.9 °F 39.0 °F 53% 29.72 in 10.0 mi South 11.5 mph - N/A   Overcast
5:54 AM 55.0 °F 39.9 °F 57% 29.71 in 10.0 mi SW 3.5 mph - N/A   Overcast
6:54 AM 55.0 °F 41.0 °F 59% 29.69 in 10.0 mi SSE 9.2 mph 18.4 mph 0.00 in Rain Light Rain
7:54 AM 54.0 °F 39.9 °F 59% 29.65 in 10.0 mi South 8.1 mph - 0.00 in   Scattered Clouds
8:54 AM 55.0 °F 39.0 °F 55% 29.65 in 10.0 mi SSW 11.5 mph - N/A   Mostly Cloudy
9:54 AM 57.9 °F 39.0 °F 49% 29.64 in 10.0 mi SSW 11.5 mph - N/A   Partly Cloudy
10:54 AM 63.0 °F 39.0 °F 41% 29.62 in 10.0 mi SW 16.1 mph - N/A   Clear
11:54 AM 68.0 °F 39.0 °F 35% 29.60 in 10.0 mi SSW 15.0 mph - N/A   Clear
12:54 PM 70.0 °F 39.9 °F 33% 29.59 in 10.0 mi WSW 17.3 mph 23.0 mph N/A   Clear
1:54 PM 71.1 °F 39.0 °F 31% 29.57 in 10.0 mi West 17.3 mph 25.3 mph N/A   Clear
2:54 PM 72.0 °F 39.0 °F 30% 29.55 in 10.0 mi West 18.4 mph 31.1 mph N/A   Clear
3:54 PM 72.0 °F 39.0 °F 30% 29.55 in 10.0 mi WSW 16.1 mph 24.2 mph N/A   Clear
4:54 PM 70.0 °F 39.0 °F 32% 29.55 in 10.0 mi West 15.0 mph 21.9 mph N/A   Clear
5:54 PM 68.0 °F 39.9 °F 36% 29.55 in 10.0 mi West 10.4 mph - N/A   Partly Cloudy
6:54 PM 64.9 °F 41.0 °F 42% 29.56 in 10.0 mi WSW 6.9 mph - N/A   Partly Cloudy
7:54 PM 64.0 °F 41.0 °F 43% 29.57 in 10.0 mi WSW 8.1 mph - N/A   Overcast
8:54 PM 63.0 °F 41.0 °F 45% 29.57 in 10.0 mi WSW 6.9 mph - N/A   Scattered Clouds
9:54 PM 63.0 °F 41.0 °F 45% 29.58 in 10.0 mi WSW 11.5 mph - N/A   Clear
10:54 PM 57.9 °F 42.1 °F 56% 29.59 in 10.0 mi WSW 9.2 mph - N/A   Clear
11:54 PM 54.0 °F 41.0 °F 62% 29.60 in 10.0 mi SW 6.9 mph - N/A   Clear